Wind_Speed
13 13 13 13 14 14 14 15 16 17 17 18 19 20 20 20 21 21 21 22 22 22 22 22 22 22 22 23 23 23 22 23 23 24 24 24 24 24 24 24 25 25 25
13 13 14 15 16 16 16 17 18 19 19 19 20 21 21 21 21 22 22 22 22 22 22 23 23 23 23 22 22 22 23 23 24 24 25 25 24 24 24 24 25 25 25
15 15 15 16 17 17 18 19 19 19 20 20 21 22 22 22 22 22 22 23 23 23 23 24 24 24 23 23 23 24 24 25 25 25 25 26 25 25 25 25 26 26 26
16 16 16 17 18 19 20 19 20 20 20 21 22 23 23 23 23 23 24 24 24 24 24 24 24 24 24 24 25 25 25 25 26 25 25 25 25 25 25 25 26 26 26
16 17 18 19 19 20 20 20 20 21 22 23 23 23 24 24 24 24 25 24 25 25 25 25 25 25 25 26 27 26 26 26 26 26 26 26 26 26 26 26 26 26 25
17 19 20 20 21 22 22 21 21 22 23 23 23 24 24 24 25 25 25 25 24 25 25 25 26 26 27 28 28 27 26 26 26 26 26 26 26 26 26 25 26 26 26
18 19 20 21 21 22 22 22 22 23 23 23 24 24 25 25 25 25 25 26 26 26 26 27 27 27 28 28 27 27 26 26 26 26 26 26 26 26 26 25 26 26 26
19 20 21 22 22 22 22 23 23 24 24 25 25 25 25 25 25 26 27 27 27 27 27 27 27 28 28 27 27 26 26 26 26 26 26 26 26 26 26 26 25 25 25
21 22 22 23 23 23 24 25 25 25 25 25 25 26 26 27 27 28 28 28 28 28 28 28 28 28 28 28 27 27 26 26 26 26 26 26 26 26 25 25 24 25 25
21 22 23 24 24 25 25 25 25 25 26 26 27 27 28 28 29 29 29 29 29 29 29 28 28 28 28 27 27 27 26 26 26 26 26 26 26 25 26 25 25 25 25
22 23 24 24 25 26 25 25 26 26 26 27 28 29 29 30 30 30 30 30 30 29 28 28 28 27 26 26 27 27 27 26 26 25 25 25 25 25 25 25 25 25 25
23 24 24 24 25 26 26 25 26 27 27 28 30 30 30 30 30 31 31 30 30 28 28 27 27 27 26 26 26 26 26 25 24 24 25 25 25 25 25 25 24 24 24
24 24 25 25 26 26 26 26 27 28 28 29 30 30 30 30 30 31 30 30 29 28 28 27 27 27 26 26 25 25 24 24 24 24 24 24 24 24 24 23 23 23 24
24 24 25 25 26 26 26 27 27 28 28 29 29 30 30 30 30 30 29 29 29 28 27 27 26 26 25 24 24 24 23 23 24 24 24 24 23 23 23 22 22 22 23
24 24 25 25 26 26 27 27 28 28 28 29 30 30 30 30 30 30 29 29 28 28 26 26 26 25 25 24 24 24 24 23 23 23 23 23 23 22 22 22 21 22 22
24 25 25 26 26 27 27 27 28 28 29 29 29 29 29 29 28 28 28 29 28 27 26 25 25 25 24 24 24 24 24 23 23 22 22 22 22 22 22 22 22 22 22
24 25 26 26 27 26 27 27 28 28 28 28 29 29 29 28 28 29 29 28 28 27 25 25 24 24 24 23 23 23 23 22 22 21 21 21 22 22 22 22 22 22 22
25 25 25 26 26 26 26 27 28 28 29 28 29 29 28 29 29 29 28 27 27 26 25 25 24 24 23 23 23 23 22 22 21 21 21 21 21 21 21 20 20 20 20
24 24 25 26 26 26 26 27 27 28 28 29 29 29 29 29 29 28 28 27 27 26 25 25 24 24 23 23 22 22 22 21 21 21 21 21 21 20 20 19 19 19 19
25 25 25 25 25 26 26 26 26 27 28 28 29 28 29 29 29 28 28 27 26 26 25 24 24 24 23 23 22 22 21 21 21 20 20 20 19 19 18 18 19 19 19
25 25 25 25 25 26 26 26 27 28 28 29 28 28 28 28 28 28 27 27 25 25 24 24 24 24 24 23 23 22 21 22 21 20 20 20 19 18 18 18 19 19 18
25 25 25 25 25 25 26 27 27 28 28 28 28 28 28 27 27 27 27 26 26 25 25 25 25 25 24 24 23 22 22 22 21 20 20 20 19 18 18 19 18 18 18
24 24 24 24 25 25 26 27 27 27 27 27 27 28 28 27 26 26 26 26 27 27 26 25 25 25 24 23 22 22 22 21 21 20 19 18 18 17 17 17 17 17 17
24 23 24 24 24 25 25 26 26 27 27 27 27 27 27 27 26 26 27 26 27 26 26 26 25 25 24 23 23 22 22 21 20 19 18 17 17 17 16 16 16 16 15
23 22 22 22 23 24 24 25 26 26 26 27 27 27 27 27 27 26 26 26 26 26 25 25 25 25 25 24 23 23 21 20 19 18 17 16 16 16 15 15 15 14 14
22 22 22 22 23 23 24 25 25 26 26 26 26 27 27 27 27 26 26 25 25 25 25 25 26 25 24 24 23 22 20 19 17 16 16 16 15 15 14 14 13 13 13
Wind_Direction
295 299 303 304 308 312 313 315 316 316 313 311 311 311 310 309 308 306 305 303 301 300 299 298 297 296 295 295 293 291 291 290 289 288 288 287 284 284 282 280 277 275 274
295 303 305 306 308 308 310 312 313 314 316 313 312 311 309 308 307 307 306 303 301 300 299 299 299 298 297 296 294 291 291 291 290 290 290 289 287 284 284 282 279 276 275
298 301 304 306 307 307 308 309 311 311 314 316 315 314 313 312 310 308 306 304 301 299 298 297 296 295 296 295 292 291 290 291 291 291 290 290 289 285 283 282 280 278 277
295 297 300 302 304 305 305 307 310 311 312 314 316 315 314 312 310 308 306 304 302 300 299 298 297 296 294 294 293 291 289 290 290 290 291 290 289 287 285 283 280 280 278
293 294 298 300 302 304 305 309 311 312 312 314 315 315 314 311 311 309 306 305 302 300 300 298 297 297 295 294 293 291 289 288 289 290 291 291 289 288 284 281 280 279 278
290 294 300 301 302 303 303 306 311 313 313 315 316 315 314 312 310 310 309 307 304 302 301 299 297 296 296 295 293 291 289 288 288 288 288 288 288 287 284 282 280 278 277
291 295 299 302 302 303 306 309 312 314 314 315 314 314 314 313 312 312 311 309 306 303 301 298 297 296 297 296 293 291 289 287 287 287 287 287 287 287 285 282 280 278 278
291 292 295 297 299 302 306 309 312 313 313 313 314 314 315 314 313 313 312 310 308 305 302 300 298 297 296 296 293 291 289 288 288 287 287 287 287 288 285 283 280 279 280
289 292 295 297 300 303 306 309 311 313 314 314 312 313 313 313 312 310 310 309 308 305 303 301 300 298 296 294 293 293 291 289 287 286 286 285 285 286 284 283 281 281 281
289 292 295 298 301 303 304 307 310 311 312 313 312 312 311 312 311 311 310 310 308 306 303 301 300 299 297 295 293 292 290 289 288 286 285 285 285 284 282 281 282 283 282
288 291 293 295 298 301 303 306 308 309 311 311 311 311 310 311 311 311 311 310 309 307 304 302 301 300 298 296 294 292 290 289 287 287 287 286 286 285 284 284 283 282 282
287 289 292 294 297 298 301 304 306 308 309 311 311 311 311 312 312 312 311 311 311 309 306 304 302 300 298 297 296 293 291 290 289 288 289 289 289 288 287 287 285 283 282
286 288 291 294 296 298 301 303 305 307 309 310 311 312 312 314 313 313 314 313 311 310 308 305 303 302 301 298 297 295 294 292 291 290 290 289 289 290 289 288 286 286 285
286 288 290 293 296 299 301 303 305 307 309 310 311 312 313 313 314 314 314 314 313 311 309 306 304 303 301 299 297 297 295 293 292 292 291 291 290 289 289 289 288 289 288
286 288 290 293 296 299 301 303 305 307 309 310 310 312 312 313 314 315 315 315 315 314 311 308 305 303 301 299 298 297 296 294 292 292 292 292 290 288 288 286 288 290 289
287 289 292 295 297 299 301 302 304 306 307 309 310 313 314 313 314 316 317 316 315 314 313 311 307 304 302 301 299 297 296 295 294 292 292 292 291 289 288 287 287 289 289
287 291 294 296 297 299 300 301 303 305 308 310 312 312 312 313 315 316 316 315 315 315 314 313 311 308 306 303 301 299 297 296 294 294 293 292 292 291 290 288 286 287 287
289 291 294 296 297 299 300 302 304 307 310 312 312 313 314 315 315 316 315 315 314 314 314 313 312 311 309 306 302 299 297 296 294 293 293 293 293 291 290 289 287 288 289
289 291 293 294 296 299 301 303 305 308 310 311 312 313 313 314 315 315 314 314 313 313 313 312 312 311 310 308 304 300 298 296 295 294 295 296 297 294 291 290 290 289 290
288 290 292 293 295 297 300 303 305 308 310 312 313 313 314 315 315 315 314 313 312 312 312 312 311 311 310 308 305 303 299 298 298 296 296 298 297 296 293 290 291 290 289
288 290 291 293 295 297 300 303 305 307 310 311 311 312 313 314 316 315 314 312 311 312 313 311 310 310 309 308 306 303 300 299 298 298 298 298 296 294 292 291 291 290 288
291 291 292 293 295 298 301 304 306 307 309 310 312 313 314 315 316 315 316 314 313 312 312 311 310 310 309 307 305 304 302 300 299 297 297 298 297 295 292 292 292 291 291
290 290 291 293 296 299 301 303 306 307 308 310 312 313 315 316 316 316 315 315 314 313 312 310 310 310 309 308 306 304 302 300 299 299 299 298 297 296 295 294 293 293 294
291 291 294 296 297 299 301 303 305 307 308 310 312 314 315 315 316 316 316 315 314 313 312 311 310 309 308 308 307 304 302 299 299 298 297 296 296 296 296 295 293 292 292
293 294 295 296 298 299 301 304 306 308 310 312 312 313 314 314 315 315 315 314 313 313 314 313 312 311 309 307 306 304 302 300 299 297 296 294 295 295 295 296 294 293 293
295 295 295 296 297 299 301 304 307 309 311 312 312 312 312 314 314 314 315 313 313 313 313 313 313 313 311 308 306 304 303 302 300 299 298 296 295 294 294 297 296 296 296
Height
5863 5862 5861 5859 5858 5856 5853 5851 5849 5847 5844 5842 5839 5836 5834 5831 5828 5825 5823 5820 5818 5815 5812 5810 5808 5806 5804 5802 5800 5798 5797 5795 5794 5792 5790 5789 5787 5786 5785 5784 5783 5783 5782
5860 5859 5858 5856 5854 5852 5850 5848 5845 5843 5840 5837 5835 5832 5829 5826 5824 5821 5818 5815 5812 5810 5807 5804 5802 5800 5798 5796 5794 5792 5790 5789 5787 5785 5783 5782 5780 5779 5778 5777 5776 5776 5775
5857 5856 5855 5853 5851 5849 5847 5844 5841 5839 5836 5833 5830 5827 5824 5821 5818 5815 5812 5809 5807 5804 5801 5799 5796 5794 5792 5790 5788 5786 5784 5782 5780 5778 5776 5775 5773 5772 5771 5770 5769 5768 5768
5854 5852 5851 5849 5847 5845 5842 5839 5837 5834 5832 5828 5825 5822 5819 5816 5813 5810 5807 5804 5801 5798 5795 5793 5790 5788 5786 5783 5781 5779 5777 5775 5773 5771 5769 5768 5766 5765 5764 5763 5761 5761 5760
5850 5849 5847 5845 5843 5840 5838 5835 5832 5830 5827 5824 5820 5817 5814 5811 5807 5804 5801 5798 5795 5792 5789 5786 5784 5781 5779 5777 5774 5772 5770 5768 5767 5765 5763 5761 5759 5758 5756 5755 5754 5753 5752
5846 5845 5843 5841 5838 5836 5833 5831 5828 5825 5822 5819 5815 5812 5809 5805 5802 5798 5795 5792 5789 5786 5783 5780 5777 5775 5772 5770 5767 5765 5763 5761 5760 5758 5756 5754 5752 5751 5749 5748 5747 5746 5745
5842 5840 5838 5836 5834 5831 5829 5826 5823 5820 5817 5814 5810 5807 5803 5799 5796 5793 5789 5786 5782 5779 5776 5773 5770 5768 5765 5762 5760 5757 5756 5754 5752 5751 5749 5747 5745 5743 5742 5740 5739 5738 5737
5837 5835 5833 5831 5829 5826 5824 5821 5818 5815 5812 5808 5805 5801 5798 5794 5791 5787 5783 5779 5776 5772 5769 5766 5763 5760 5757 5755 5752 5750 5748 5746 5744 5743 5741 5739 5737 5736 5734 5732 5731 5730 5729
5832 5830 5828 5826 5824 5822 5819 5816 5813 5810 5806 5803 5799 5796 5792 5788 5784 5781 5777 5773 5769 5765 5762 5758 5755 5752 5749 5747 5744 5742 5740 5738 5736 5734 5733 5731 5730 5728 5727 5725 5724 5723 5722
5827 5825 5823 5821 5819 5816 5814 5811 5808 5804 5801 5797 5794 5790 5786 5782 5778 5774 5770 5766 5762 5758 5754 5751 5747 5744 5741 5739 5736 5734 5732 5730 5728 5727 5725 5723 5722 5720 5719 5718 5716 5715 5714
5821 5820 5818 5816 5813 5811 5808 5805 5802 5799 5795 5791 5788 5784 5780 5776 5772 5768 5763 5759 5754 5750 5746 5743 5740 5737 5733 5731 5728 5726 5724 5722 5720 5718 5717 5715 5714 5712 5711 5709 5708 5707 5706
5815 5814 5812 5810 5807 5805 5802 5799 5796 5792 5789 5785 5781 5777 5773 5769 5765 5760 5756 5751 5747 5743 5739 5735 5732 5729 5726 5723 5721 5718 5716 5714 5712 5710 5709 5707 5706 5704 5703 5701 5700 5699 5698
5809 5807 5806 5804 5801 5799 5796 5793 5790 5786 5782 5779 5775 5770 5766 5762 5757 5753 5749 5745 5740 5736 5732 5728 5725 5722 5719 5716 5713 5711 5708 5706 5705 5703 5701 5700 5698 5697 5695 5694 5692 5691 5690
5802 5801 5799 5797 5795 5792 5789 5786 5783 5779 5776 5772 5768 5764 5759 5755 5751 5747 5742 5738 5734 5729 5725 5721 5718 5714 5711 5708 5706 5704 5701 5699 5697 5695 5694 5692 5691 5689 5688 5686 5685 5684 5682
5796 5794 5792 5790 5788 5786 5783 5780 5777 5773 5769 5766 5762 5757 5753 5749 5744 5740 5736 5731 5727 5722 5718 5714 5711 5708 5705 5702 5699 5696 5694 5692 5690 5688 5686 5685 5683 5682 5681 5679 5678 5676 5675
5789 5787 5785 5783 5781 5779 5776 5773 5770 5767 5763 5759 5755 5751 5746 5742 5738 5734 5730 5725 5721 5716 5712 5708 5704 5701 5698 5695 5692 5690 5687 5685 5683 5681 5679 5677 5676 5675 5673 5672 5671 5670 5668
5783 5781 5779 5777 5774 5772 5769 5766 5763 5760 5756 5752 5748 5744 5740 5736 5732 5728 5724 5719 5715 5710 5706 5702 5698 5694 5691 5688 5686 5683 5681 5678 5676 5674 5672 5671 5669 5668 5666 5665 5664 5663 5661
5776 5774 5772 5770 5768 5765 5763 5760 5756 5752 5748 5745 5741 5737 5733 5729 5725 5721 5717 5713 5708 5704 5700 5696 5692 5688 5685 5682 5679 5677 5674 5672 5670 5668 5666 5664 5662 5661 5659 5658 5657 5656 5654
5769 5767 5765 5763 5761 5758 5756 5753 5749 5746 5742 5738 5734 5730 5726 5722 5718 5714 5710 5706 5702 5698 5694 5690 5686 5683 5679 5676 5673 5670 5668 5666 5663 5661 5659 5657 5655 5654 5653 5651 5650 5649 5648
5762 5760 5758 5756 5754 5751 5749 5746 5742 5739 5735 5731 5727 5723 5719 5715 5711 5707 5703 5699 5695 5691 5687 5684 5680 5676 5673 5670 5667 5664 5662 5659 5657 5655 5653 5651 5649 5648 5646 5645 5644 5643 5641
5755 5753 5751 5749 5747 5744 5742 5739 5735 5732 5729 5725 5721 5717 5712 5708 5704 5700 5696 5692 5688 5684 5681 5677 5674 5670 5667 5664 5661 5658 5655 5653 5651 5648 5646 5644 5643 5641 5640 5639 5637 5636 5635
5748 5746 5744 5742 5740 5737 5734 5731 5728 5725 5722 5718 5714 5710 5706 5702 5698 5694 5690 5686 5682 5678 5674 5670 5667 5664 5660 5657 5654 5651 5649 5646 5644 5642 5640 5638 5636 5635 5634 5632 5631 5629 5628
5741 5739 5737 5735 5732 5730 5727 5724 5721 5718 5714 5711 5707 5703 5699 5695 5691 5687 5683 5679 5675 5671 5667 5664 5660 5657 5653 5650 5647 5644 5642 5640 5637 5635 5633 5631 5630 5628 5627 5626 5624 5623 5622
5734 5732 5729 5727 5725 5723 5720 5717 5714 5711 5708 5704 5700 5697 5693 5689 5685 5681 5677 5673 5669 5665 5661 5657 5653 5650 5646 5643 5640 5637 5634 5632 5630 5628 5626 5625 5623 5622 5620 5619 5618 5617 5616
5726 5724 5722 5720 5718 5716 5713 5711 5708 5705 5701 5698 5694 5691 5687 5683 5679 5675 5670 5666 5662 5658 5654 5650 5646 5643 5639 5636 5632 5630 5627 5625 5623 5621 5620 5618 5617 5615 5614 5613 5612 5611 5610
5720 5718 5716 5714 5712 5709 5707 5704 5701 5698 5695 5691 5688 5684 5681 5677 5673 5668 5664 5660 5656 5652 5648 5644 5640 5636 5632 5628 5625 5623 5620 5618 5617 5615 5613 5612 5611 5610 5609 5607 5606 5605 5604